Location: Plainartige
(45.6866°N, 1.7993°E)
Time: 16:37:22
(UTC+00:00)

CZ-2C R/B - Pass Details

Date: 03 March 2021
Orbit: 784 x 871 km, 98.2° (Epoch: 10 April)

Event Time Altitude Azimuth Distance (km) Brightness Sun altitude
Rises 18:01:12 0° 24° (NNE) 3,426 5.6 -4.1°
Reaches altitude 10° 18:04:02 10° 37° (NE) 2,472 4.8 -4.6°
Maximum altitude 18:08:31 25° 92° (E) 1,607 3.6 -5.3°
Drops below altitude 10° 18:12:54 10° 147° (SSE) 2,409 4.8 -6.1°
Sets 18:15:36 0° 161° (SSE) 3,321 5.6 -6.6°
